AAL728 KLAX-KSAN

Flight info

Callsign AAL728
Flight time 0h 32m
Altitude 13000
Route LAXX1 MZB
Aircraft A339/H-SDE1E2E3FGHIJ4J5P2RWXYZ/LB1D1

Departure

Time 2026-05-07 05:02
Airport Los Angeles International Airport (KLAX)

Arrival

Time 2026-05-07 05:34
Airport San Diego International Airport (KSAN)
Time Latitude Longitude Altitude Speed Heading
2026-05-07 04:31 33.93530 -118.38219 109 ft 0 kts 281°
2026-05-07 04:45 33.93528 -118.38209 109 ft 2 kts 281°
2026-05-07 04:45 33.93525 -118.38191 109 ft 2 kts 281°
2026-05-07 04:45 33.93523 -118.38173 109 ft 2 kts 281°
2026-05-07 04:46 33.93518 -118.38156 109 ft 2 kts 303°
2026-05-07 04:46 33.93508 -118.38142 109 ft 2 kts 324°
2026-05-07 04:46 33.93494 -118.38133 109 ft 2 kts 344°
2026-05-07 04:46 33.93483 -118.38131 109 ft 0 kts 359°
2026-05-07 04:47 33.93478 -118.38131 109 ft 0 kts
2026-05-07 04:52 33.93479 -118.38131 109 ft 0 kts
2026-05-07 04:52 33.93492 -118.38131 109 ft 3 kts
2026-05-07 04:53 33.93521 -118.38131 109 ft 5 kts
2026-05-07 04:53 33.93567 -118.38130 109 ft 7 kts
2026-05-07 04:53 33.93609 -118.38148 109 ft 6 kts 313°
2026-05-07 04:53 33.93619 -118.38196 109 ft 5 kts 267°
2026-05-07 04:54 33.93615 -118.38248 109 ft 5 kts 264°
2026-05-07 04:54 33.93615 -118.38268 109 ft 0 kts 284°
2026-05-07 04:54 33.93618 -118.38272 109 ft 0 kts 316°
2026-05-07 04:54 33.93626 -118.38275 109 ft 0 kts 345°
2026-05-07 04:57 33.93628 -118.38276 109 ft 1 kts 345°
2026-05-07 04:57 33.93644 -118.38280 109 ft 3 kts 350°
2026-05-07 04:58 33.93673 -118.38284 109 ft 5 kts 353°
2026-05-07 04:58 33.93714 -118.38290 109 ft 5 kts 352°
2026-05-07 04:58 33.93729 -118.38303 109 ft 1 kts 287°
2026-05-07 04:58 33.93729 -118.38309 109 ft 0 kts 272°
2026-05-07 04:59 33.93729 -118.38310 109 ft 2 kts 273°
2026-05-07 04:59 33.93730 -118.38326 109 ft 0 kts 265°
2026-05-07 04:59 33.93730 -118.38328 109 ft 0 kts 265°
2026-05-07 04:59 33.93730 -118.38329 109 ft 0 kts 265°
2026-05-07 05:01 33.93730 -118.38332 109 ft 1 kts 265°
2026-05-07 05:02 33.93704 -118.38615 113 ft 69 kts 262°
2026-05-07 05:02 33.93617 -118.39445 118 ft 129 kts 263°
2026-05-07 05:02 33.93478 -118.40712 226 ft 168 kts 261°
2026-05-07 05:02 33.93310 -118.42104 870 ft 166 kts 263°
2026-05-07 05:03 33.93053 -118.43419 1619 ft 160 kts 256°
2026-05-07 05:03 33.92844 -118.44739 2147 ft 168 kts 262°
2026-05-07 05:03 33.92655 -118.46196 2566 ft 184 kts 263°
2026-05-07 05:03 33.92457 -118.47772 2982 ft 201 kts 263°
2026-05-07 05:04 33.92231 -118.49509 3392 ft 219 kts 263°
2026-05-07 05:04 33.91992 -118.51360 3900 ft 229 kts 263°
2026-05-07 05:04 33.91523 -118.53210 4491 ft 235 kts 238°
2026-05-07 05:04 33.90342 -118.54536 5110 ft 240 kts 207°
2026-05-07 05:05 33.88755 -118.55185 5785 ft 242 kts 194°
2026-05-07 05:05 33.87109 -118.55627 6431 ft 245 kts 192°
2026-05-07 05:05 33.85438 -118.56036 7058 ft 249 kts 191°
2026-05-07 05:05 33.83738 -118.56463 7674 ft 253 kts 191°
2026-05-07 05:06 33.81951 -118.56660 8121 ft 264 kts 178°
2026-05-07 05:06 33.80055 -118.56784 8457 ft 283 kts 186°
2026-05-07 05:06 33.78048 -118.57217 8875 ft 300 kts 191°
2026-05-07 05:06 33.75991 -118.57779 9526 ft 306 kts 191°
2026-05-07 05:07 33.73906 -118.58384 10242 ft 311 kts 192°
2026-05-07 05:07 33.71777 -118.59010 10742 ft 324 kts 192°
2026-05-07 05:07 33.69503 -118.59506 10947 ft 341 kts 178°
2026-05-07 05:07 33.67197 -118.58909 10936 ft 337 kts 149°
2026-05-07 05:08 33.65446 -118.57149 10956 ft 328 kts 122°
2026-05-07 05:08 33.64393 -118.54773 10962 ft 324 kts 111°
2026-05-07 05:08 33.63464 -118.52298 10962 ft 324 kts 111°
2026-05-07 05:08 33.62483 -118.49857 10958 ft 325 kts 113°
2026-05-07 05:09 33.61450 -118.47478 10962 ft 325 kts 114°
2026-05-07 05:09 33.60370 -118.45115 10966 ft 325 kts 115°
2026-05-07 05:09 33.59249 -118.42750 10959 ft 325 kts 116°
2026-05-07 05:09 33.58109 -118.40394 10956 ft 326 kts 117°
2026-05-07 05:10 33.56956 -118.38042 10962 ft 326 kts 117°
2026-05-07 05:10 33.55809 -118.35722 10962 ft 326 kts 117°
2026-05-07 05:10 33.54652 -118.33397 10960 ft 326 kts 117°
2026-05-07 05:10 33.53482 -118.31055 10961 ft 325 kts 117°
2026-05-07 05:11 33.52321 -118.28733 10967 ft 325 kts 117°
2026-05-07 05:11 33.51172 -118.26439 10967 ft 325 kts 117°
2026-05-07 05:11 33.49992 -118.24086 10964 ft 325 kts 117°
2026-05-07 05:11 33.48840 -118.21787 10963 ft 326 kts 117°
2026-05-07 05:12 33.47661 -118.19442 10958 ft 326 kts 117°
2026-05-07 05:12 33.46498 -118.17125 10959 ft 326 kts 117°
2026-05-07 05:12 33.45327 -118.14797 10967 ft 326 kts 117°
2026-05-07 05:12 33.44150 -118.12460 10961 ft 326 kts 117°
2026-05-07 05:13 33.42986 -118.10148 10970 ft 326 kts 117°
2026-05-07 05:13 33.41823 -118.07843 10967 ft 325 kts 117°
2026-05-07 05:13 33.40638 -118.05494 10963 ft 325 kts 117°
2026-05-07 05:13 33.39471 -118.03180 10965 ft 325 kts 117°
2026-05-07 05:14 33.38309 -118.00880 10963 ft 326 kts 117°
2026-05-07 05:14 33.37133 -117.98554 10961 ft 325 kts 117°
2026-05-07 05:14 33.35958 -117.96232 10956 ft 326 kts 117°
2026-05-07 05:14 33.34797 -117.93932 10963 ft 326 kts 117°
2026-05-07 05:15 33.33624 -117.91614 10969 ft 326 kts 117°
2026-05-07 05:15 33.32444 -117.89288 10968 ft 326 kts 117°
2026-05-07 05:15 33.31273 -117.86976 10966 ft 326 kts 117°
2026-05-07 05:15 33.30104 -117.84672 10972 ft 326 kts 117°
2026-05-07 05:16 33.28929 -117.82355 10978 ft 325 kts 117°
2026-05-07 05:16 33.27751 -117.80037 10973 ft 325 kts 117°
2026-05-07 05:16 33.26590 -117.77753 10978 ft 325 kts 117°
2026-05-07 05:16 33.25407 -117.75428 10969 ft 325 kts 117°
2026-05-07 05:17 33.24239 -117.73132 10964 ft 324 kts 117°
2026-05-07 05:17 33.23066 -117.70828 10991 ft 325 kts 117°
2026-05-07 05:17 33.21901 -117.68542 10969 ft 324 kts 117°
2026-05-07 05:17 33.20738 -117.66261 10980 ft 324 kts 117°
2026-05-07 05:18 33.19554 -117.63940 10979 ft 324 kts 117°
2026-05-07 05:18 33.18389 -117.61654 10988 ft 325 kts 117°
2026-05-07 05:18 33.17216 -117.59358 10915 ft 322 kts 117°
2026-05-07 05:18 33.16064 -117.57104 10687 ft 317 kts 116°
2026-05-07 05:19 33.14923 -117.54876 10421 ft 313 kts 117°
2026-05-07 05:19 33.13803 -117.52688 10277 ft 305 kts 116°
2026-05-07 05:19 33.12709 -117.50554 10135 ft 297 kts 116°
2026-05-07 05:19 33.11570 -117.48509 9985 ft 293 kts 124°
2026-05-07 05:20 33.10207 -117.46751 9858 ft 288 kts 129°
2026-05-07 05:20 33.08806 -117.45082 9730 ft 282 kts 130°
2026-05-07 05:20 33.07442 -117.43449 9607 ft 275 kts 129°
2026-05-07 05:20 33.06113 -117.41831 9481 ft 268 kts 129°
2026-05-07 05:21 33.04825 -117.40239 9341 ft 263 kts 128°
2026-05-07 05:21 33.02317 -117.37102 8881 ft 261 kts 128°
2026-05-07 05:21 33.01084 -117.35550 8630 ft 260 kts 128°
2026-05-07 05:22 32.99839 -117.33982 8401 ft 259 kts 129°
2026-05-07 05:22 32.98600 -117.32423 8163 ft 259 kts 129°
2026-05-07 05:22 32.97358 -117.30858 7915 ft 259 kts 129°
2026-05-07 05:22 32.96117 -117.29298 7680 ft 258 kts 129°
2026-05-07 05:23 32.94888 -117.27750 7452 ft 258 kts 129°
2026-05-07 05:23 32.93660 -117.26213 7299 ft 253 kts 129°
2026-05-07 05:23 32.92463 -117.24707 7167 ft 247 kts 130°
2026-05-07 05:23 32.91301 -117.23251 7043 ft 241 kts 130°
2026-05-07 05:24 32.90151 -117.21806 6927 ft 236 kts 129°
2026-05-07 05:24 32.89027 -117.20395 6745 ft 234 kts 130°
2026-05-07 05:24 32.87911 -117.18992 6536 ft 234 kts 129°
2026-05-07 05:24 32.86796 -117.17590 6316 ft 234 kts 130°
2026-05-07 05:25 32.85683 -117.16190 6112 ft 233 kts 130°
2026-05-07 05:25 32.84569 -117.14797 5998 ft 230 kts 130°
2026-05-07 05:25 32.83464 -117.13412 5993 ft 233 kts 130°
2026-05-07 05:25 32.82338 -117.12003 5991 ft 233 kts 130°
2026-05-07 05:26 32.81221 -117.10608 5991 ft 233 kts 130°
2026-05-07 05:26 32.80112 -117.09217 5990 ft 233 kts 130°
2026-05-07 05:26 32.78990 -117.07814 5990 ft 233 kts 130°
2026-05-07 05:26 32.77967 -117.06338 5984 ft 230 kts 116°
2026-05-07 05:27 32.77366 -117.04594 5994 ft 226 kts 103°
2026-05-07 05:27 32.76939 -117.02825 5895 ft 221 kts 102°
2026-05-07 05:27 32.76540 -117.01090 5545 ft 212 kts 102°
2026-05-07 05:27 32.76159 -116.99464 5383 ft 199 kts 102°
2026-05-07 05:28 32.75774 -116.97987 5372 ft 178 kts 110°
2026-05-07 05:28 32.75128 -116.96810 5319 ft 164 kts 128°
2026-05-07 05:28 32.74245 -116.95964 5064 ft 162 kts 147°
2026-05-07 05:28 32.73193 -116.95479 4723 ft 166 kts 166°
2026-05-07 05:29 32.72044 -116.95403 4419 ft 164 kts 186°
2026-05-07 05:29 32.70960 -116.95743 4176 ft 160 kts 205°
2026-05-07 05:29 32.70015 -116.96458 3965 ft 159 kts 224°
2026-05-07 05:29 32.69309 -116.97453 3756 ft 157 kts 243°
2026-05-07 05:30 32.68892 -116.98621 3552 ft 153 kts 263°
2026-05-07 05:30 32.68872 -116.99863 3356 ft 148 kts 282°
2026-05-07 05:30 32.69060 -117.01047 3163 ft 147 kts 288°
2026-05-07 05:30 32.69315 -117.02219 3005 ft 145 kts 290°
2026-05-07 05:31 32.69590 -117.03377 2881 ft 144 kts 290°
2026-05-07 05:31 32.69868 -117.04518 2707 ft 146 kts 289°
2026-05-07 05:31 32.70149 -117.05675 2449 ft 145 kts 289°
2026-05-07 05:31 32.70425 -117.06823 2226 ft 144 kts 289°
2026-05-07 05:32 32.70702 -117.07970 2007 ft 145 kts 288°
2026-05-07 05:32 32.70983 -117.09139 1787 ft 150 kts 288°
2026-05-07 05:32 32.71277 -117.10361 1541 ft 154 kts 288°
2026-05-07 05:32 32.71563 -117.11550 1300 ft 150 kts 288°
2026-05-07 05:33 32.71847 -117.12730 1075 ft 145 kts 287°
2026-05-07 05:33 32.72118 -117.13850 858 ft 140 kts 287°
2026-05-07 05:33 32.72383 -117.14946 644 ft 136 kts 287°
2026-05-07 05:33 32.72645 -117.16029 434 ft 137 kts 287°
2026-05-07 05:34 32.72913 -117.17112 225 ft 136 kts 288°
2026-05-07 05:34 32.73165 -117.18185 33 ft 132 kts 285°
2026-05-07 05:34 32.73372 -117.19048 32 ft 70 kts 288°
2026-05-07 05:34 32.73449 -117.19370 32 ft 25 kts 274°
2026-05-07 05:35 32.73420 -117.19519 31 ft 15 kts 250°
2026-05-07 05:35 32.73412 -117.19612 30 ft 5 kts 278°